KLM3CM ESGG-EDDF

Flight info

Callsign KLM3CM
Flight time 1h 33m
Altitude 32000
Route TOPLA L996 ERNOV DCT NIKDA DCT NOBRI DCT BUMIL DCT HLZ DCT RIMET T157 KERAX KERAX5A
Aircraft A20N/M-SDE2E3FGHIRWXY/LB1

Departure

Time 2026-05-07 18:22
Airport Göteborg Landvetter Airport (ESGG)

Arrival

Time 2026-05-07 19:56
Airport Frankfurt Main Airport (EDDF)
Time Latitude Longitude Altitude Speed Heading
2026-05-07 18:03 57.66778 12.29311 519 ft 0 kts 116°
2026-05-07 18:15 57.66788 12.29274 519 ft 5 kts 118°
2026-05-07 18:15 57.66804 12.29219 519 ft 3 kts 111°
2026-05-07 18:15 57.66805 12.29195 519 ft 2 kts 57°
2026-05-07 18:15 57.66798 12.29181 519 ft 2 kts 39°
2026-05-07 18:16 57.66795 12.29177 519 ft 0 kts 38°
2026-05-07 18:17 57.66797 12.29179 519 ft 2 kts 38°
2026-05-07 18:17 57.66822 12.29209 519 ft 7 kts 25°
2026-05-07 18:18 57.66879 12.29259 519 ft 12 kts 25°
2026-05-07 18:18 57.66963 12.29326 519 ft 13 kts 358°
2026-05-07 18:18 57.67007 12.29219 519 ft 12 kts 309°
2026-05-07 18:18 57.67100 12.29237 519 ft 18 kts 26°
2026-05-07 18:19 57.67229 12.29354 519 ft 22 kts 25°
2026-05-07 18:19 57.67377 12.29489 519 ft 25 kts 26°
2026-05-07 18:19 57.67482 12.29580 519 ft 17 kts 19°
2026-05-07 18:19 57.67492 12.29586 519 ft 0 kts 15°
2026-05-07 18:20 57.67498 12.29589 519 ft 4 kts 13°
2026-05-07 18:20 57.67540 12.29578 519 ft 8 kts 329°
2026-05-07 18:20 57.67579 12.29460 519 ft 14 kts 297°
2026-05-07 18:21 57.67584 12.29253 519 ft 19 kts 256°
2026-05-07 18:21 57.67480 12.29070 518 ft 24 kts 206°
2026-05-07 18:21 57.67229 12.28839 517 ft 68 kts 208°
2026-05-07 18:21 57.66605 12.28274 515 ft 132 kts 205°
2026-05-07 18:22 57.65612 12.27396 601 ft 172 kts 208°
2026-05-07 18:22 57.64891 12.26835 1060 ft 170 kts 195°
2026-05-07 18:22 57.63336 12.26644 2086 ft 166 kts 195°
2026-05-07 18:22 57.62128 12.26033 2406 ft 196 kts 197°
2026-05-07 18:23 57.60728 12.25272 2694 ft 223 kts 197°
2026-05-07 18:23 57.59164 12.24447 3143 ft 248 kts 195°
2026-05-07 18:23 57.57461 12.23577 3988 ft 257 kts 194°
2026-05-07 18:23 57.55716 12.22786 4952 ft 259 kts 185°
2026-05-07 18:24 57.53929 12.23005 5879 ft 260 kts 172°
2026-05-07 18:24 57.52128 12.23453 6795 ft 263 kts 171°
2026-05-07 18:24 57.50302 12.23974 7647 ft 268 kts 171°
2026-05-07 18:24 57.48438 12.24507 8481 ft 275 kts 172°
2026-05-07 18:25 57.46554 12.25034 9356 ft 280 kts 173°
2026-05-07 18:25 57.44610 12.25569 10236 ft 286 kts 173°
2026-05-07 18:25 57.42579 12.26120 10730 ft 306 kts 173°
2026-05-07 18:25 57.40388 12.26709 11058 ft 330 kts 173°
2026-05-07 18:26 57.38040 12.27339 11380 ft 353 kts 173°
2026-05-07 18:26 57.35532 12.28013 11702 ft 374 kts 173°
2026-05-07 18:26 57.32910 12.28718 12180 ft 387 kts 173°
2026-05-07 18:26 57.30218 12.29442 12887 ft 394 kts 173°
2026-05-07 18:27 57.27477 12.30178 13651 ft 400 kts 173°
2026-05-07 18:27 57.24710 12.30918 14368 ft 405 kts 173°
2026-05-07 18:27 57.21944 12.31658 15039 ft 409 kts 173°
2026-05-07 18:27 57.20040 12.32166 15500 ft 412 kts 173°
2026-05-07 18:28 57.16255 12.33174 16401 ft 417 kts 173°
2026-05-07 18:28 57.13366 12.33938 17077 ft 421 kts 173°
2026-05-07 18:28 57.10456 12.34682 17735 ft 425 kts 173°
2026-05-07 18:28 57.07514 12.35417 18371 ft 429 kts 173°
2026-05-07 18:29 57.04539 12.36152 18907 ft 433 kts 174°
2026-05-07 18:29 57.01582 12.36879 19417 ft 437 kts 174°
2026-05-07 18:29 56.98520 12.37632 19938 ft 441 kts 174°
2026-05-07 18:29 56.95507 12.38374 20441 ft 444 kts 173°
2026-05-07 18:30 56.92431 12.39131 20951 ft 448 kts 173°
2026-05-07 18:30 56.89325 12.39896 21451 ft 452 kts 173°
2026-05-07 18:30 56.86192 12.40667 21945 ft 456 kts 173°
2026-05-07 18:30 56.83042 12.41442 22442 ft 459 kts 173°
2026-05-07 18:31 56.79864 12.42221 22926 ft 463 kts 173°
2026-05-07 18:31 56.76658 12.43007 23413 ft 466 kts 173°
2026-05-07 18:31 56.73433 12.43795 23863 ft 469 kts 173°
2026-05-07 18:31 56.70225 12.44578 24257 ft 472 kts 173°
2026-05-07 18:32 56.66968 12.45372 24654 ft 474 kts 173°
2026-05-07 18:32 56.63679 12.46172 25042 ft 477 kts 173°
2026-05-07 18:32 56.60399 12.46968 25487 ft 477 kts 173°
2026-05-07 18:32 56.57109 12.47766 26057 ft 475 kts 173°
2026-05-07 18:33 56.53841 12.48558 26588 ft 474 kts 173°
2026-05-07 18:33 56.50570 12.49348 27109 ft 473 kts 173°
2026-05-07 18:33 56.47314 12.50133 27618 ft 471 kts 173°
2026-05-07 18:33 56.44069 12.50914 28111 ft 471 kts 173°
2026-05-07 18:34 56.40820 12.51694 28602 ft 470 kts 173°
2026-05-07 18:34 56.37631 12.52457 29067 ft 469 kts 173°
2026-05-07 18:34 56.34393 12.53230 29531 ft 468 kts 173°
2026-05-07 18:34 56.31173 12.53998 29988 ft 468 kts 173°
2026-05-07 18:35 56.27943 12.54766 30395 ft 467 kts 173°
2026-05-07 18:35 56.24727 12.55529 30752 ft 467 kts 173°
2026-05-07 18:35 56.21512 12.56292 31117 ft 466 kts 172°
2026-05-07 18:35 56.18302 12.57043 31474 ft 465 kts 174°
2026-05-07 18:36 56.15073 12.57288 31815 ft 465 kts 181°
2026-05-07 18:36 56.11880 12.56956 32090 ft 466 kts 185°
2026-05-07 18:36 56.08645 12.56321 32135 ft 470 kts 187°
2026-05-07 18:37 56.02167 12.54792 32134 ft 470 kts 187°
2026-05-07 18:37 55.95668 12.53360 32136 ft 470 kts 186°
2026-05-07 18:38 55.89159 12.52074 32142 ft 470 kts 186°
2026-05-07 18:38 55.82696 12.50856 32146 ft 470 kts 186°
2026-05-07 18:39 55.76185 12.49639 32151 ft 470 kts 186°
2026-05-07 18:39 55.69680 12.48421 32155 ft 470 kts 186°
2026-05-07 18:40 55.63177 12.47204 32159 ft 470 kts 186°
2026-05-07 18:40 55.56665 12.45987 32155 ft 470 kts 186°
2026-05-07 18:41 55.50204 12.44785 32151 ft 470 kts 185°
2026-05-07 18:41 55.43694 12.43577 32147 ft 470 kts 185°
2026-05-07 18:42 55.37185 12.42374 32135 ft 470 kts 185°
2026-05-07 18:42 55.30664 12.41173 32137 ft 470 kts 185°
2026-05-07 18:43 55.24160 12.39979 32143 ft 470 kts 185°
2026-05-07 18:43 55.17693 12.38795 32143 ft 470 kts 185°
2026-05-07 18:44 55.11174 12.37605 32140 ft 470 kts 185°
2026-05-07 18:44 55.04665 12.36422 32139 ft 471 kts 185°
2026-05-07 18:45 54.98155 12.35242 32140 ft 470 kts 185°
2026-05-07 18:45 54.91697 12.34075 32141 ft 470 kts 185°
2026-05-07 18:46 54.85193 12.32904 32138 ft 469 kts 185°
2026-05-07 18:46 54.78703 12.31739 32141 ft 469 kts 185°
2026-05-07 18:47 54.72218 12.30579 32136 ft 468 kts 185°
2026-05-07 18:47 54.65756 12.29254 32134 ft 468 kts 191°
2026-05-07 18:48 54.59574 12.26047 32133 ft 467 kts 200°
2026-05-07 18:48 54.53529 12.21959 32138 ft 467 kts 202°
2026-05-07 18:49 54.47528 12.17708 32136 ft 466 kts 202°
2026-05-07 18:49 54.41522 12.13501 32136 ft 465 kts 202°
2026-05-07 18:50 54.35556 12.09385 32135 ft 465 kts 201°
2026-05-07 18:50 54.29546 12.05273 32133 ft 465 kts 201°
2026-05-07 18:51 54.23527 12.01169 32128 ft 466 kts 201°
2026-05-07 18:51 54.17511 11.97078 32136 ft 465 kts 201°
2026-05-07 18:52 54.11498 11.93000 32126 ft 465 kts 201°
2026-05-07 18:52 54.05534 11.88968 32121 ft 464 kts 201°
2026-05-07 18:53 53.99531 11.84922 32126 ft 464 kts 201°
2026-05-07 18:53 53.93522 11.80884 32127 ft 464 kts 201°
2026-05-07 18:54 53.87524 11.76867 32120 ft 464 kts 201°
2026-05-07 18:54 53.81518 11.72856 32126 ft 464 kts 201°
2026-05-07 18:55 53.75558 11.68889 32120 ft 464 kts 201°
2026-05-07 18:55 53.69552 11.64903 32113 ft 464 kts 201°
2026-05-07 18:56 53.63542 11.60927 32116 ft 464 kts 201°
2026-05-07 18:56 53.57541 11.56969 32110 ft 463 kts 201°
2026-05-07 18:57 53.51576 11.53047 32122 ft 463 kts 201°
2026-05-07 18:57 53.45568 11.49108 32118 ft 463 kts 201°
2026-05-07 18:58 53.39569 11.45187 32116 ft 463 kts 201°
2026-05-07 18:58 53.33571 11.41278 32108 ft 462 kts 201°
2026-05-07 18:59 53.27578 11.37385 32112 ft 462 kts 201°
2026-05-07 18:59 53.21621 11.33528 32110 ft 462 kts 201°
2026-05-07 19:00 53.15631 11.29659 32109 ft 462 kts 201°
2026-05-07 19:00 53.09641 11.25802 32105 ft 462 kts 201°
2026-05-07 19:01 53.03641 11.21951 32108 ft 462 kts 201°
2026-05-07 19:01 52.97678 11.18135 32108 ft 462 kts 201°
2026-05-07 19:02 52.91681 11.14309 32119 ft 462 kts 201°
2026-05-07 19:02 52.85677 11.10488 32112 ft 462 kts 201°
2026-05-07 19:03 52.79669 11.06678 32108 ft 462 kts 201°
2026-05-07 19:03 52.73708 11.02908 32113 ft 462 kts 201°
2026-05-07 19:04 52.67709 10.99125 32111 ft 462 kts 201°
2026-05-07 19:04 52.62714 10.95984 32112 ft 462 kts 201°
2026-05-07 19:05 52.55701 10.91586 32113 ft 462 kts 201°
2026-05-07 19:05 52.50702 10.88461 32112 ft 462 kts 201°
2026-05-07 19:06 52.43719 10.84108 32108 ft 462 kts 201°
2026-05-07 19:06 52.34699 10.78548 32104 ft 462 kts 200°
2026-05-07 19:07 52.28639 10.75057 32108 ft 462 kts 199°
2026-05-07 19:07 52.23586 10.72207 32102 ft 462 kts 199°
2026-05-07 19:08 52.16535 10.68226 32102 ft 462 kts 199°
2026-05-07 19:08 52.10457 10.64787 32106 ft 462 kts 200°
2026-05-07 19:09 52.05419 10.61938 32109 ft 462 kts 200°
2026-05-07 19:09 51.99343 10.58511 32061 ft 460 kts 200°
2026-05-07 19:10 51.96341 10.56822 31685 ft 452 kts 200°
2026-05-07 19:10 51.93392 10.55166 31241 ft 445 kts 200°
2026-05-07 19:10 51.89494 10.52980 30118 ft 450 kts 200°
2026-05-07 19:10 51.87508 10.51867 29847 ft 444 kts 200°
2026-05-07 19:11 51.84627 10.50256 29585 ft 432 kts 200°
2026-05-07 19:11 51.81865 10.48714 29351 ft 420 kts 200°
2026-05-07 19:11 51.79132 10.47190 29070 ft 410 kts 200°
2026-05-07 19:11 51.76467 10.45705 28798 ft 401 kts 200°
2026-05-07 19:12 51.73856 10.44253 28514 ft 392 kts 200°
2026-05-07 19:12 51.71303 10.42834 28246 ft 384 kts 200°
2026-05-07 19:12 51.68810 10.41449 27974 ft 375 kts 200°
2026-05-07 19:12 51.66366 10.40094 27706 ft 368 kts 200°
2026-05-07 19:13 51.63967 10.38765 27439 ft 360 kts 200°
2026-05-07 19:13 51.61626 10.37470 27174 ft 353 kts 200°
2026-05-07 19:13 51.59317 10.36193 26917 ft 347 kts 200°
2026-05-07 19:13 51.57061 10.34946 26654 ft 340 kts 200°
2026-05-07 19:14 51.54870 10.33738 26400 ft 334 kts 200°
2026-05-07 19:14 51.52693 10.32538 26147 ft 328 kts 200°
2026-05-07 19:14 51.50551 10.31358 25893 ft 322 kts 200°
2026-05-07 19:14 51.48448 10.30202 25638 ft 317 kts 200°
2026-05-07 19:15 51.46376 10.29063 25387 ft 313 kts 200°
2026-05-07 19:15 51.44325 10.27936 25163 ft 310 kts 200°
2026-05-07 19:15 51.42291 10.26820 25104 ft 309 kts 200°
2026-05-07 19:15 51.40253 10.25702 25097 ft 309 kts 200°
2026-05-07 19:16 51.38217 10.24586 25100 ft 309 kts 200°
2026-05-07 19:16 51.36211 10.23488 25018 ft 308 kts 200°
2026-05-07 19:16 51.34177 10.22401 24675 ft 308 kts 196°
2026-05-07 19:16 51.32074 10.21806 24338 ft 307 kts 187°
2026-05-07 19:17 51.29945 10.21580 24125 ft 305 kts 183°
2026-05-07 19:17 51.27825 10.21543 24099 ft 305 kts 181°
2026-05-07 19:17 51.25693 10.21545 24094 ft 305 kts 185°
2026-05-07 19:17 51.23572 10.20990 24098 ft 318 kts 199°
2026-05-07 19:18 51.21431 10.19745 24092 ft 338 kts 204°
2026-05-07 19:18 51.19236 10.18127 24089 ft 357 kts 208°
2026-05-07 19:18 51.16973 10.16246 24087 ft 376 kts 210°
2026-05-07 19:18 51.14627 10.14201 24087 ft 394 kts 210°
2026-05-07 19:19 51.12191 10.12061 24084 ft 403 kts 210°
2026-05-07 19:19 51.09737 10.09922 24090 ft 412 kts 210°
2026-05-07 19:19 51.07199 10.07739 24088 ft 416 kts 209°
2026-05-07 19:19 51.04633 10.05557 24089 ft 421 kts 209°
2026-05-07 19:20 51.02100 10.03424 24095 ft 403 kts 209°
2026-05-07 19:20 50.99587 10.01317 24094 ft 416 kts 209°
2026-05-07 19:20 50.96982 9.99135 24090 ft 432 kts 209°
2026-05-07 19:20 50.94276 9.96871 24088 ft 447 kts 208°
2026-05-07 19:21 50.91511 9.94454 24038 ft 459 kts 212°
2026-05-07 19:21 50.88944 9.91588 23393 ft 456 kts 218°
2026-05-07 19:21 50.86469 9.88436 22095 ft 460 kts 221°
2026-05-07 19:21 50.84049 9.85105 21001 ft 460 kts 223°
2026-05-07 19:22 50.81686 9.81745 20380 ft 450 kts 223°
2026-05-07 19:22 50.79455 9.78560 20982 ft 408 kts 223°
2026-05-07 19:22 50.77498 9.75760 22222 ft 355 kts 223°
2026-05-07 19:22 50.75767 9.73272 22941 ft 321 kts 223°
2026-05-07 19:23 50.74162 9.70965 22984 ft 306 kts 223°
2026-05-07 19:23 50.72583 9.68704 22341 ft 312 kts 223°
2026-05-07 19:23 50.70985 9.66428 21922 ft 311 kts 223°
2026-05-07 19:23 50.69384 9.64165 21539 ft 309 kts 223°
2026-05-07 19:24 50.67755 9.61871 20755 ft 321 kts 223°
2026-05-07 19:24 50.66056 9.59484 19931 ft 333 kts 223°
2026-05-07 19:24 50.64298 9.57020 19082 ft 344 kts 223°
2026-05-07 19:24 50.62486 9.54486 18179 ft 355 kts 223°
2026-05-07 19:25 50.60603 9.51857 17132 ft 366 kts 223°
2026-05-07 19:25 50.58675 9.49166 16054 ft 376 kts 223°
2026-05-07 19:25 50.56699 9.46412 14948 ft 385 kts 223°
2026-05-07 19:25 50.54664 9.43580 13780 ft 394 kts 223°
2026-05-07 19:26 50.52618 9.40734 12505 ft 403 kts 222°
2026-05-07 19:26 50.50514 9.37814 11649 ft 404 kts 222°
2026-05-07 19:26 50.48407 9.34893 11208 ft 402 kts 222°
2026-05-07 19:26 50.46317 9.32000 11086 ft 401 kts 222°
2026-05-07 19:27 50.44226 9.29106 11080 ft 400 kts 222°
2026-05-07 19:27 50.42144 9.26228 11079 ft 399 kts 222°
2026-05-07 19:27 50.40068 9.23329 11073 ft 399 kts 224°
2026-05-07 19:27 50.38243 9.20072 11075 ft 398 kts 234°
2026-05-07 19:28 50.36744 9.16510 11071 ft 379 kts 242°
2026-05-07 19:28 50.35739 9.12909 11085 ft 354 kts 251°
2026-05-07 19:28 50.34984 9.09369 11082 ft 332 kts 252°
2026-05-07 19:28 50.34293 9.06030 10986 ft 315 kts 252°
2026-05-07 19:29 50.33633 9.02834 10822 ft 302 kts 252°
2026-05-07 19:29 50.32999 8.99773 10671 ft 290 kts 252°
2026-05-07 19:29 50.32388 8.96832 10526 ft 279 kts 252°
2026-05-07 19:29 50.31798 8.94002 10390 ft 268 kts 252°
2026-05-07 19:30 50.31232 8.91295 10270 ft 258 kts 252°
2026-05-07 19:30 50.30689 8.88699 10064 ft 251 kts 252°
2026-05-07 19:30 50.30147 8.86122 9753 ft 249 kts 252°
2026-05-07 19:30 50.29606 8.83557 9411 ft 247 kts 252°
2026-05-07 19:31 50.29068 8.81012 9070 ft 246 kts 252°
2026-05-07 19:31 50.28532 8.78484 8731 ft 244 kts 252°
2026-05-07 19:31 50.27998 8.75975 8404 ft 242 kts 252°
2026-05-07 19:31 50.27467 8.73485 8086 ft 241 kts 252°
2026-05-07 19:32 50.26939 8.71013 7767 ft 239 kts 252°
2026-05-07 19:32 50.26414 8.68560 7448 ft 238 kts 252°
2026-05-07 19:32 50.25890 8.66111 7152 ft 236 kts 252°
2026-05-07 19:32 50.25378 8.63717 7076 ft 235 kts 252°
2026-05-07 19:33 50.24860 8.61294 7072 ft 236 kts 252°
2026-05-07 19:33 50.24343 8.58867 7082 ft 236 kts 252°
2026-05-07 19:33 50.23825 8.56435 7073 ft 236 kts 252°
2026-05-07 19:33 50.23306 8.53997 7071 ft 236 kts 252°
2026-05-07 19:34 50.22788 8.51566 7076 ft 236 kts 252°
2026-05-07 19:34 50.22270 8.49131 7073 ft 236 kts 252°
2026-05-07 19:34 50.21753 8.46693 7065 ft 236 kts 252°
2026-05-07 19:34 50.21235 8.44257 7072 ft 238 kts 252°
2026-05-07 19:35 50.20695 8.41708 7061 ft 262 kts 252°
2026-05-07 19:35 50.20116 8.38962 7062 ft 270 kts 252°
2026-05-07 19:35 50.19529 8.36171 7070 ft 271 kts 252°
2026-05-07 19:35 50.18940 8.33375 7062 ft 270 kts 252°
2026-05-07 19:36 50.18371 8.30687 7069 ft 252 kts 252°
2026-05-07 19:36 50.17838 8.28178 7061 ft 236 kts 252°
2026-05-07 19:36 50.17340 8.25826 7071 ft 221 kts 252°
2026-05-07 19:36 50.16865 8.23586 7078 ft 216 kts 252°
2026-05-07 19:37 50.16400 8.21394 7060 ft 216 kts 252°
2026-05-07 19:37 50.15926 8.19168 7062 ft 216 kts 252°
2026-05-07 19:37 50.15460 8.16981 7070 ft 210 kts 252°
2026-05-07 19:37 50.15001 8.14833 6973 ft 208 kts 252°
2026-05-07 19:38 50.14545 8.12694 6694 ft 208 kts 252°
2026-05-07 19:38 50.14092 8.10564 6425 ft 207 kts 252°
2026-05-07 19:38 50.13640 8.08440 6133 ft 206 kts 252°
2026-05-07 19:38 50.13187 8.06324 5847 ft 206 kts 252°
2026-05-07 19:39 50.12732 8.04213 5535 ft 206 kts 252°
2026-05-07 19:39 50.12281 8.02127 5262 ft 206 kts 252°
2026-05-07 19:39 50.11822 8.00012 5012 ft 205 kts 252°
2026-05-07 19:39 50.11366 7.97908 4988 ft 205 kts 252°
2026-05-07 19:40 50.10908 7.95800 4982 ft 206 kts 252°
2026-05-07 19:40 50.10448 7.93687 4987 ft 206 kts 252°
2026-05-07 19:40 50.09995 7.91608 5035 ft 201 kts 252°
2026-05-07 19:40 50.09545 7.89542 4985 ft 203 kts 252°
2026-05-07 19:41 50.09093 7.87457 4985 ft 204 kts 252°
2026-05-07 19:41 50.08640 7.85370 4983 ft 204 kts 252°
2026-05-07 19:41 50.08192 7.83308 4984 ft 204 kts 252°
2026-05-07 19:41 50.07735 7.81218 4980 ft 204 kts 250°
2026-05-07 19:42 50.06971 7.79375 4981 ft 205 kts 225°
2026-05-07 19:42 50.05754 7.78270 4978 ft 206 kts 192°
2026-05-07 19:42 50.04331 7.78158 4989 ft 206 kts 175°
2026-05-07 19:42 50.02939 7.78551 4976 ft 196 kts 165°
2026-05-07 19:43 50.01675 7.79175 4998 ft 195 kts 160°
2026-05-07 19:43 50.00360 7.79937 4983 ft 205 kts 159°
2026-05-07 19:43 49.99021 7.80723 4978 ft 207 kts 159°
2026-05-07 19:43 49.97689 7.81472 4981 ft 207 kts 160°
2026-05-07 19:44 49.96329 7.82197 4983 ft 207 kts 161°
2026-05-07 19:44 49.94961 7.82893 4981 ft 207 kts 162°
2026-05-07 19:44 49.93591 7.83569 4984 ft 207 kts 162°
2026-05-07 19:44 49.92221 7.84233 4981 ft 207 kts 162°
2026-05-07 19:45 49.90843 7.84896 4982 ft 207 kts 162°
2026-05-07 19:45 49.89531 7.85763 4970 ft 206 kts 139°
2026-05-07 19:45 49.88847 7.87622 4979 ft 201 kts 94°
2026-05-07 19:45 49.89129 7.89670 4990 ft 200 kts 65°
2026-05-07 19:46 49.89701 7.91643 4985 ft 201 kts 65°
2026-05-07 19:46 49.90238 7.93654 4978 ft 200 kts 68°
2026-05-07 19:46 49.90725 7.95620 4988 ft 197 kts 68°
2026-05-07 19:46 49.91213 7.97628 4997 ft 201 kts 68°
2026-05-07 19:47 49.91701 7.99670 4997 ft 202 kts 69°
2026-05-07 19:47 49.92188 8.01710 5014 ft 202 kts 68°
2026-05-07 19:47 49.92656 8.03664 5038 ft 181 kts 68°
2026-05-07 19:47 49.93067 8.05375 5008 ft 157 kts 68°
2026-05-07 19:48 49.93424 8.06860 5011 ft 145 kts 68°
2026-05-07 19:48 49.93776 8.08320 5034 ft 144 kts 68°
2026-05-07 19:48 49.94128 8.09782 5039 ft 145 kts 68°
2026-05-07 19:48 49.94482 8.11253 5050 ft 145 kts 68°
2026-05-07 19:49 49.94835 8.12723 5055 ft 145 kts 68°
2026-05-07 19:49 49.95187 8.14191 5062 ft 145 kts 68°
2026-05-07 19:49 49.95541 8.15664 5000 ft 146 kts 68°
2026-05-07 19:49 49.95895 8.17136 4824 ft 145 kts 68°
2026-05-07 19:50 49.96247 8.18605 4600 ft 146 kts 68°
2026-05-07 19:50 49.96609 8.20109 4364 ft 151 kts 68°
2026-05-07 19:50 49.96978 8.21648 4130 ft 152 kts 68°
2026-05-07 19:50 49.97342 8.23167 3917 ft 151 kts 68°
2026-05-07 19:51 49.97708 8.24692 3712 ft 151 kts 68°
2026-05-07 19:51 49.98074 8.26215 3514 ft 150 kts 68°
2026-05-07 19:51 49.98437 8.27729 3317 ft 149 kts 68°
2026-05-07 19:51 49.98800 8.29241 3108 ft 149 kts 68°
2026-05-07 19:52 49.99159 8.30740 2901 ft 148 kts 68°
2026-05-07 19:52 49.99516 8.32231 2707 ft 147 kts 69°
2026-05-07 19:52 49.99863 8.33677 2526 ft 136 kts 69°
2026-05-07 19:52 50.00182 8.35007 2341 ft 129 kts 69°
2026-05-07 19:53 50.00494 8.36311 2156 ft 129 kts 69°
2026-05-07 19:53 50.00804 8.37601 1983 ft 129 kts 69°
2026-05-07 19:53 50.01116 8.38904 1800 ft 128 kts 69°
2026-05-07 19:53 50.01425 8.40196 1633 ft 128 kts 69°
2026-05-07 19:54 50.01735 8.41487 1445 ft 127 kts 69°
2026-05-07 19:54 50.02044 8.42779 1270 ft 127 kts 69°
2026-05-07 19:54 50.02352 8.44066 1097 ft 127 kts 69°
2026-05-07 19:54 50.02660 8.45352 936 ft 126 kts 69°
2026-05-07 19:55 50.02962 8.46614 765 ft 126 kts 69°
2026-05-07 19:55 50.03266 8.47881 595 ft 125 kts 69°
2026-05-07 19:55 50.03570 8.49153 420 ft 125 kts 69°
2026-05-07 19:55 50.03867 8.50393 323 ft 115 kts 69°
2026-05-07 19:56 50.04084 8.51300 330 ft 63 kts 69°
2026-05-07 19:56 50.04206 8.51799 339 ft 45 kts 71°
2026-05-07 19:56 50.04232 8.52199 343 ft 29 kts 95°
2026-05-07 19:56 50.04202 8.52492 350 ft 26 kts 98°
2026-05-07 19:57 50.04224 8.52754 357 ft 24 kts 72°
2026-05-07 19:57 50.04276 8.52986 361 ft 22 kts 69°
2026-05-07 19:57 50.04324 8.53200 367 ft 19 kts 69°
2026-05-07 19:57 50.04368 8.53380 374 ft 16 kts 70°
2026-05-07 19:58 50.04399 8.53545 378 ft 16 kts 85°
2026-05-07 19:58 50.04409 8.53734 378 ft 19 kts 85°
2026-05-07 19:58 50.04425 8.53959 378 ft 23 kts 84°
2026-05-07 19:58 50.04442 8.54217 378 ft 25 kts 85°
2026-05-07 19:59 50.04447 8.54512 371 ft 30 kts 104°
2026-05-07 19:59 50.04309 8.54774 362 ft 32 kts 155°
2026-05-07 19:59 50.04098 8.54894 353 ft 24 kts 160°
2026-05-07 19:59 50.04020 8.55007 358 ft 15 kts 82°
2026-05-07 20:00 50.04034 8.55077 363 ft 3 kts 70°
2026-05-07 20:00 50.04048 8.55136 358 ft 8 kts 70°
2026-05-07 20:00 50.04070 8.55228 361 ft 6 kts 70°
2026-05-07 20:00 50.04070 8.55230 361 ft 0 kts 70°
2026-05-07 20:01 50.04071 8.55231 361 ft 1 kts 70°
2026-05-07 20:01 50.04081 8.55273 359 ft 7 kts 70°
2026-05-07 20:01 50.04104 8.55375 362 ft 13 kts 70°
2026-05-07 20:01 50.04140 8.55526 363 ft 17 kts 70°
2026-05-07 20:02 50.04185 8.55712 362 ft 20 kts 69°
2026-05-07 20:02 50.04236 8.55923 359 ft 22 kts 69°
2026-05-07 20:02 50.04291 8.56156 361 ft 24 kts 70°
2026-05-07 20:02 50.04349 8.56397 361 ft 22 kts 70°
2026-05-07 20:03 50.04395 8.56591 365 ft 13 kts 69°
2026-05-07 20:03 50.04430 8.56735 367 ft 16 kts 70°
2026-05-07 20:03 50.04471 8.56909 369 ft 19 kts 70°
2026-05-07 20:03 50.04522 8.57123 362 ft 23 kts 69°
2026-05-07 20:04 50.04581 8.57370 366 ft 26 kts 69°
2026-05-07 20:04 50.04644 8.57639 367 ft 28 kts 70°
2026-05-07 20:04 50.04728 8.57915 366 ft 29 kts 41°
2026-05-07 20:04 50.04831 8.58173 368 ft 29 kts 69°
2026-05-07 20:05 50.04880 8.58374 365 ft 14 kts 69°
2026-05-07 20:05 50.04916 8.58520 363 ft 15 kts 69°
2026-05-07 20:05 50.04951 8.58664 367 ft 13 kts 69°
2026-05-07 20:05 50.04984 8.58797 367 ft 13 kts 69°
2026-05-07 20:06 50.05018 8.58936 369 ft 14 kts 69°
2026-05-07 20:06 50.05045 8.59041 363 ft 10 kts 72°
2026-05-07 20:06 50.05082 8.59113 365 ft 9 kts 359°
2026-05-07 20:06 50.05142 8.59082 363 ft 8 kts 340°
2026-05-07 20:07 50.05148 8.59079 368 ft 1 kts 340°
2026-05-07 20:07 50.05153 8.59076 367 ft 0 kts 340°